China Lake, CA

7:28 AM PDT on September 22, 2017 (GMT -0700)
China Lake NAWS

Weather History for KNID - May, 2014

Change the Weather History Date:

Wednesday, May 14, 2014

  Actual Average Record
Temperature  
Mean Temperature 70 °F -  
Max Temperature 90 °F 84 °F 99 °F (2006)
Min Temperature 50 °F 57 °F 36 °F (1998)
Cooling Degree Days 5    
Growing Degree Days 20 (Base 50)    
Moisture  
Dew Point 10 °F    
Average Humidity 10    
Maximum Humidity 17    
Minimum Humidity 6    
Precipitation  
Precipitation 0.00 in - - ()
Sea Level Pressure  
Sea Level Pressure 30.16 in    
Wind  
Wind Speed 7 mph (SSE)    
Max Wind Speed 12 mph    
Max Gust Speed 21 mph    
Visibility 10 miles    
Events      
Averages and records for this station are not official NWS values.
T = Trace of Precipitation, MM = Missing Value Source: NWS Daily Summary

Daily Weather History Graph

Daily Weather History Graph

Search for Another Location

Airport or City:

Trip Planner

Search our weather history database for the weather conditions in past years. The results will help you decide how hot, cold, wet, or windy it might be!

Date:

Astronomy

May. 14, 2014 Rise Set
Actual Time 5:46 AM PDT 7:48 PM PDT
Civil Twilight 5:18 AM PDT 8:16 PM PDT
Nautical Twilight 4:43 AM PDT 8:51 PM PDT
Astronomical Twilight 4:06 AM PDT 9:28 PM PDT
Moon 7:59 PM PDT (5/14) 5:47 AM PDT (5/14)
Length of Visible Light 14h 58m
Length of Day
14h 01m
Full, 100% of the Moon is Illuminated
May 14
Full
May 14
Full
May 21
Last Quarter
May 28
New
Jun 5
First Quarter

Hourly Weather History & Observations

Time (PDT) Temp. Dew Point Humidity Pressure Visibility Wind Dir Wind Speed Gust Speed Precip Events Conditions
12:56 AM 61.0 °F 7.0 °F 12% 30.19 in 10.0 mi South 8.1 mph - N/A   Clear
1:56 AM 57.0 °F 5.0 °F 12% 30.19 in 10.0 mi SSW 9.2 mph - N/A   Clear
2:56 AM 55.0 °F 6.1 °F 14% 30.19 in 10.0 mi SSW 8.1 mph - N/A   Clear
3:56 AM 50.0 °F 5.0 °F 16% 30.20 in 10.0 mi SW 3.5 mph - N/A   Clear
4:56 AM 51.1 °F 6.1 °F 16% 30.21 in 10.0 mi SSW 5.8 mph - N/A   Clear
5:56 AM 51.1 °F 7.0 °F 17% 30.22 in 10.0 mi SW 8.1 mph - N/A   Clear
6:56 AM 57.0 °F 8.1 °F 14% 30.23 in 10.0 mi SW 3.5 mph - N/A   Clear
7:56 AM 61.0 °F 10.0 °F 13% 30.25 in 10.0 mi Calm Calm - N/A   Clear
8:56 AM 68.0 °F 10.0 °F 11% 30.25 in 10.0 mi Calm Calm - N/A   Clear
9:56 AM 75.9 °F 10.9 °F 8% 30.24 in 10.0 mi ENE 3.5 mph - N/A   Clear
10:56 AM 81.0 °F 12.9 °F 8% 30.22 in 10.0 mi ESE 9.2 mph - N/A   Clear
11:56 AM 84.0 °F 12.0 °F 7% 30.20 in 10.0 mi East 9.2 mph 20.7 mph N/A   Clear
12:56 PM 84.9 °F 12.0 °F 7% 30.18 in 10.0 mi North - - N/A   Clear
1:56 PM 88.0 °F 12.0 °F 6% 30.15 in 10.0 mi East 11.5 mph - N/A   Clear
2:56 PM 89.1 °F 12.0 °F 6% 30.13 in 10.0 mi Variable 6.9 mph - N/A   Clear
3:56 PM 89.1 °F 12.0 °F 6% 30.11 in 10.0 mi ESE 8.1 mph - N/A   Clear
4:56 PM 90.0 °F 12.0 °F 6% 30.09 in 10.0 mi East 9.2 mph - N/A   Clear
5:56 PM 89.1 °F 12.0 °F 6% 30.07 in 10.0 mi North - - N/A   Clear
6:56 PM 87.1 °F 12.0 °F 6% 30.06 in 10.0 mi ESE 3.5 mph - N/A   Partly Cloudy
7:56 PM 81.0 °F 12.0 °F 7% 30.07 in 10.0 mi SSE 6.9 mph - N/A   Partly Cloudy
8:56 PM 73.9 °F 14.0 °F 10% 30.09 in 10.0 mi SE 4.6 mph - N/A   Clear
9:56 PM 71.1 °F 12.0 °F 10% 30.10 in 10.0 mi South 9.2 mph - N/A   Clear
10:56 PM 66.0 °F 10.9 °F 12% 30.11 in 10.0 mi West 5.8 mph - N/A   Clear
11:56 PM 66.9 °F 10.9 °F 11% 30.10 in 10.0 mi South 9.2 mph - N/A   Clear